Voltar ao catálogo

CZ-4B R/B

AtivoSSO
NORAD 25942·ROCKET BODY·🇨🇳 China

Lançado Oct 14, 1999 de Taiyuan Satellite Launch Center

Loading…

Próximas Passagens (próximas 24 horas)

TLE

AtualizadoSource: Space-Track

Época: Sep 14, 2026, 02:27 UTC

1 25942U 99057C   26257.10250605  .00000174  00000-0  69227-4 0  9995
2 25942  98.7133 310.7911 0094726 313.2348  46.0958 14.38465142408371

Acompanhe CZ-4B R/B em tempo real com AllMySat

Download on the App Store